Tracking 19489 objects as of 22-Jan-2019
HD Live streaming from Space Station
objects crossing your sky now

HELLAS SAT 1 (DFS 3)

Track HELLAS SAT 1 (DFS 3) now!
HELLAS SAT 1 (DFS 3) is classified as:


NORAD ID: 22175
Int'l Code: 1992-066A
Perigee: 35,925.7 km
Apogee: 35,967.7 km
Inclination: 12.7 °
Period: 1,443.9 minutes
Semi major axis: 42317 km
RCS: 4.2132 m2 (large)
Launch date: October 12, 1992
Source: Greece (GREC)
Launch site: AIR FORCE EASTERN TEST RANGE (AFETR)
aabbcc
Your satellite tracking list
Your tracking list is empty




NASA's NSSDC Master Catalog

Two Line Element Set (TLE):
1 22175U 92066A   19022.55104289  .00000086  00000-0  00000+0 0  9991
2 22175  12.6871  27.4004 0004962 305.8282 204.7198  0.99728753 93643
Source of the keplerian elements: AFSPC